Regional Weather Roundup
Issued by NWS

Home | Current Version | Previous Version | Graphics & Text | Print | Product List | Glossary On
Versions: 1 2 3 4 5 6 7 8 9 10 11 12 13 14 15 16 17 18 19 20 21 22 23 24 25 26 27 28 29 30 31 32 33 34 35 36 37 38 39 40 41 42 43 44 45 46 47 48 49 50
000
ASUS45 KABQ 011310
RWRNM
WEATHER ROUNDUP FOR NEW MEXICO
NATIONAL WEATHER SERVICE ALBUQUERQUE NM
700 AM MDT WED OCT 01 2014

NOTE: "FAIR" MEANS FEW OR NO CLOUDS BELOW 12,000 FEET AGL WITH NO
       SIGNIFICANT WEATHER OR OBSTRUCTIONS TO VISION.

      THIS PRODUCT IS RELEASED AS TWO VERSIONS.  ONE VERSION NEAR
      THE TOP OF THE HOUR CONTAINING PRELIMINARY DATA FROM ALBUQUERQUE
      AND OTHER STATIONS.  A FINAL VERSION WITH ADDITIONAL DATA IS
      ISSUED ABOUT 10 MINUTES AFTER THE HOUR.

NMZ501-503-504-510>518-011400-
NORTHWEST PLATEAU/NORTHCENTRAL MOUNTAINS

CITY           SKY/WX    TMP DP  RH WIND       PRES   REMARKS
FARMINGTON     MOCLDY    46  40  79 E7        29.94S
LOS ALAMOS     CLEAR     47  32  54 CALM      30.04S
SANTA FE       CLEAR     43  31  62 N10       30.00R
TAOS           PTCLDY    30  27  86 N5        30.06R WCI  25
ANGEL FIRE     FAIR      23  21  91 CALM      30.10R

$$
NMZ402-403-502-505>509-011400-
WESTCENTRAL MOUNTAINS/SOUTHWEST MOUNTAINS

CITY           SKY/WX    TMP DP  RH WIND       PRES   REMARKS
GALLUP         CLEAR     42  36  79 CALM      30.03R
GRANTS         CLEAR     32  28  86 NW5       30.06R WCI  27
SILVER CITY    CLEAR     45  36  70 N12       30.01R

$$
NMZ407-409-411-412-011400-
SOUTHERN DESERTS

CITY           SKY/WX    TMP DP  RH WIND       PRES   REMARKS
LORDSBURG      FAIR      46  37  71 MISG      29.95R
DEMING         CLEAR     50  39  66 SW6       29.95R
LAS CRUCES     CLEAR     54  37  53 W8        29.96R
HOLLOMAN AFB   PTCLDY    56  37  48 S6        29.91R
ALAMOGORDO     PTCLDY    55  37  50 S9        29.92R
T OR C         CLEAR     56  35  45 NW14      29.95R

$$
NMZ519>523-011400-
CENTRAL VALLEYS/CENTRAL HIGHLANDS

CITY           SKY/WX    TMP DP  RH WIND       PRES   REMARKS
ALBUQUERQUE    CLEAR     52  36  54 NE3       29.99R
DOUBLE EAGLE   PTCLDY    41  30  65 CALM      30.00R
MORIARTY ARPT  FAIR      31  28  92 N3        30.02S
CLINES CORNERS PTCLDY    41  30  65 W9        30.02R
BELEN          FAIR      46  36  68 CALM      29.98
SOCORRO        FAIR      48  38  66 SW5       29.96R

$$
NMZ524>526-539-540-011400-
SOUTHCENTRAL MOUNTAINS

CITY           SKY/WX    TMP DP  RH WIND       PRES   REMARKS
RUIDOSO        NOT AVBL

$$
NMZ527>531-011400-
NORTHEAST HIGHLANDS/NORTHEAST PLAINS

CITY           SKY/WX    TMP DP  RH WIND       PRES   REMARKS
LAS VEGAS      CLEAR     43  26  51 NW6       30.01R
RATON          CLEAR     39  33  79 N8        29.97R WCI  33
CLAYTON        CLEAR     55  35  47 NW16      29.88R

$$
NMZ532>537-011400-
EASTCENTRAL PLAINS

CITY           SKY/WX    TMP DP  RH WIND       PRES   REMARKS
TUCUMCARI      CLEAR     46  42  86 SW5       29.87R
CANNON AFB     CLEAR     52  42  67 N7        29.88R
CLOVIS AIRPORT   N/A     52  41  66 NW6       29.90R

$$
NMZ028-029-538-011400-
SOUTHEAST PLAINS

CITY           SKY/WX    TMP DP  RH WIND       PRES   REMARKS
ROSWELL        CLEAR     53  45  74 W5        29.89R
CARLSBAD       CLEAR     56  51  84 NW8       29.86R
HOBBS          CLEAR     57  57 100 SW6       29.88R FOG


$$



USA.gov is the U.S. government's official web portal to all federal, state and local government web resources and services.